Weather History for Taunton, MA

Change the Weather History Date:

Tuesday, April 29, 2014

  Actual Average Record
Temperature  
Mean Temperature 44 °F -  
Max Temperature 48 °F 62 °F 94 °F (1990)
Min Temperature 43 °F 38 °F 27 °F (1975)
Degree Days  
Heating Degree Days 20    
Moisture  
Dew Point 35 °F    
Average Humidity 67    
Maximum Humidity 74    
Minimum Humidity 56    
Precipitation  
Precipitation 0.00 in - - ()
Sea Level Pressure  
Sea Level Pressure 30.40 in    
Wind  
Wind Speed 8 mph (ENE)    
Max Wind Speed 13 mph    
Max Gust Speed 24 mph    
Visibility 10 miles    
Events      
Averages and records for this station are not official NWS values.
T = Trace of Precipitation, MM = Missing Value Source: NWS Daily Summary

Daily Weather History Graph

Daily Weather History Graph

Search for Another Location

Airport:

Trip Planner

Search our weather history database for the weather conditions in past years. The results will help you decide how hot, cold, wet, or windy it might be!

Date:

Astronomy

Apr. 29, 2014 Rise Set
Actual Time 5:43 AM EDT 7:40 PM EDT
Civil Twilight 5:12 AM EDT 8:10 PM EDT
Nautical Twilight 4:36 AM EDT 8:47 PM EDT
Astronomical Twilight 3:56 AM EDT 9:27 PM EDT
Moon 5:59 AM EDT (4/29) 8:17 PM EDT (4/29)
Length of Visible Light 14h 57m
Length of Day
13h 57m
New Moon, 0% of the Moon is Illuminated
Apr 29
New Moon
May 6
First Quarter
May 14
Full
May 21
Last Quarter
May 28
New

Hourly Weather History & Observations

Time (EDT) Temp. Windchill Dew Point Humidity Pressure Visibility Wind Dir Wind Speed Gust Speed Precip Events Conditions
12:52 AM 46.9 °F - 37.0 °F 68% 30.23 in 10.0 mi ENE 9.2 mph 24.2 mph N/A   Overcast
1:52 AM 46.0 °F 42.5 °F 36.0 °F 68% 30.23 in 10.0 mi Variable 6.9 mph 18.4 mph N/A   Overcast
2:52 AM 45.0 °F 40.6 °F 37.0 °F 74% 30.24 in 10.0 mi NE 8.1 mph 17.3 mph N/A   Overcast
3:52 AM 45.0 °F 41.2 °F 37.0 °F 74% 30.27 in 10.0 mi Variable 6.9 mph - 0.00 in   Overcast
4:52 AM 45.0 °F 41.2 °F 37.0 °F 74% 30.29 in 10.0 mi NE 6.9 mph 17.3 mph N/A   Overcast
5:52 AM 44.1 °F 39.0 °F 36.0 °F 73% 30.32 in 10.0 mi NE 9.2 mph - N/A   Overcast
7:52 AM 45.0 °F 40.6 °F 35.1 °F 68% 30.37 in 10.0 mi NE 8.1 mph - N/A   Overcast
8:52 AM 45.0 °F 40.6 °F 35.1 °F 68% 30.38 in 10.0 mi NE 8.1 mph 21.9 mph N/A   Overcast
9:52 AM 46.0 °F 42.5 °F 35.1 °F 66% 30.42 in 10.0 mi ENE 6.9 mph - N/A   Overcast
11:52 AM 46.0 °F 40.2 °F 35.1 °F 66% 30.43 in 10.0 mi NNE 12.7 mph 19.6 mph N/A   Overcast
12:52 PM 46.0 °F 42.5 °F 33.1 °F 61% 30.45 in 10.0 mi ENE 6.9 mph 17.3 mph N/A   Overcast
1:52 PM 46.0 °F 40.6 °F 33.1 °F 61% 30.47 in 10.0 mi ENE 11.5 mph - N/A   Overcast
2:52 PM 46.9 °F - 33.1 °F 59% 30.46 in 10.0 mi East 11.5 mph 20.7 mph N/A   Overcast
3:52 PM 46.9 °F - 32.0 °F 56% 30.46 in 10.0 mi NE 10.4 mph - N/A   Overcast
6:52 PM 44.1 °F 39.5 °F 34.0 °F 68% 30.49 in 10.0 mi NE 8.1 mph - N/A   Overcast
7:52 PM 44.1 °F 39.0 °F 34.0 °F 68% 30.49 in 10.0 mi East 9.2 mph 17.3 mph N/A   Overcast
8:52 PM 44.1 °F 40.8 °F 35.1 °F 71% 30.51 in 10.0 mi ENE 5.8 mph - N/A   Overcast
10:52 PM 43.0 °F 40.3 °F 33.1 °F 68% 30.51 in 10.0 mi ENE 4.6 mph - N/A   Overcast
11:52 PM 43.0 °F 38.8 °F 33.1 °F 68% 30.52 in 10.0 mi East 6.9 mph - 0.00 in   Overcast